Location: Newark
(53.2000°N, 6.1000°W)
Time: 17:16:00
(UTC+00:00)

X-37B - Visible Passes

Search period start: 01 October 2020 00:00
Search period end: 11 October 2020 00:00
Orbit: 386 x 387 km, 45.0° (Epoch: 18 September)

Date Brightness Start Highest point End Pass type
(mag) Time Alt. Az. Time Alt. Az. Time Alt. Az.
05 Oct 2.8 19:26:33 10° SSW 19:28:10 14° SSE 19:28:10 14° SSE visible
06 Oct 3.0 18:29:06 10° S 18:30:03 11° SSE 18:31:00 10° SE visible
06 Oct 3.1 20:03:35 10° SW 20:04:31 15° SSW 20:04:31 15° SSW visible
07 Oct 2.6 19:05:23 10° SSW 19:07:32 17° S 19:08:32 15° SSE visible
08 Oct 2.6 19:42:48 10° SW 19:44:47 19° S 19:44:47 19° S visible
09 Oct 2.6 18:44:27 10° SW 18:46:46 19° S 18:48:46 12° SE visible
09 Oct 3.6 20:20:44 10° SW 20:21:02 11° SW 20:21:02 11° SW visible
10 Oct 2.6 19:22:07 10° SW 19:24:22 18° S 19:25:00 17° S visible
